DW1024 Weather Reports


time (UTC)temp
F
wind
direction
speed
knots
gust
knots
rain 1hr
in
rain 24hr
in
rain mn
in
humidity
%
barometer
mb
20260508040600 43 164 0.0 0.9 0.00 0.00 0.00 91 1016.7
20260508035102 43 164 0.0 0.9 0.00 0.00 0.00 90 1016.7
20260508033606 43 164 0.0 2.6 0.00 0.00 0.00 90 1016.6
20260508032105 42 218 0.0 2.6 0.00 0.00 0.00 89 1016.5
20260508030607 42 47 0.0 0.9 0.00 0.00 0.00 88 1016.3
20260508025103 42 47 0.0 0.0 0.00 0.00 0.00 86 1016.4
20260508022100 43 47 0.0 0.0 0.00 0.00 0.00 86 1016.6
20260508020557 44 47 0.0 0.0 0.00 0.00 0.00 86 1016.6
20260508015105 44 47 0.0 0.0 0.00 0.00 0.00 85 1016.7
20260508013554 45 47 0.0 0.0 0.00 0.00 0.00 85 1016.7
20260508012053 45 47 0.0 0.0 0.00 0.00 0.00 85 1016.7
20260508010553 46 47 0.0 0.0 0.00 0.00 0.00 85 1016.7
20260508005052 47 47 0.0 0.0 0.00 0.00 0.00 84 1016.7
20260508003555 47 47 0.0 0.0 0.00 0.00 0.00 84 1016.8
20260508002048 48 47 0.0 0.0 0.00 0.00 0.00 84 1016.9
20260508000549 49 47 0.0 0.0 0.00 0.00 0.00 83 1017.0
20260507235053 50 47 0.0 0.0 0.00 0.00 0.00 84 1017.1
20260507233545 50 47 0.0 0.0 0.00 0.00 0.00 84 1017.2
20260507232046 51 47 0.0 0.0 0.00 0.00 0.00 84 1017.3
20260507230548 51 47 0.0 0.9 0.00 0.00 0.00 84 1017.3
20260507225044 51 47 0.0 0.9 0.00 0.00 0.00 84 1017.4
20260507223545 51 47 0.0 0.9 0.00 0.00 0.00 84 1017.5
20260507222040 51 47 0.0 0.0 0.00 0.00 0.00 83 1017.5
20260507220557 51 47 0.0 0.9 0.00 0.00 0.00 83 1017.5
20260507215036 51 47 0.0 0.9 0.00 0.00 0.00 82 1017.5
20260507213536 51 47 0.0 0.9 0.00 0.00 0.00 81 1017.5
20260507212041 51 47 0.0 0.0 0.00 0.00 0.00 80 1017.5
20260507210552 52 47 0.0 0.0 0.00 0.00 0.00 80 1017.5
20260507205032 52 47 0.0 0.0 0.00 0.00 0.00 79 1017.5
20260507202030 53 47 0.0 1.7 0.00 0.00 0.00 79 1017.4
20260507200530 53 47 0.9 4.3 0.00 0.00 0.00 79 1017.1
20260507195031 53 36 1.7 3.5 0.00 0.00 0.00 79 1017.0
20260507193523 53 58 1.7 3.5 0.00 0.00 0.00 78 1017.0
20260507190523 55 66 1.7 6.1 0.00 0.00 0.00 75 1016.6
20260507185022 56 39 0.9 3.5 0.00 0.00 0.00 74 1016.2
20260507183525 56 140 0.9 4.3 0.00 0.00 0.00 73 1016.2
20260507182015 56 186 0.9 5.2 0.00 0.00 0.00 73 1016.1
20260507180515 56 23 0.9 5.2 0.00 0.00 0.00 73 1015.7
20260507175016 56 235 0.9 7.0 0.00 0.00 0.00 73 1015.5
20260507173518 57 348 1.7 7.8 0.00 0.00 0.00 73 1015.3
20260507172018 57 53 1.7 5.2 0.00 0.00 0.00 72 1015.1
20260507165016 58 104 1.7 4.3 0.00 0.00 0.00 70 1015.2
20260507163518 58 261 0.9 2.6 0.00 0.00 0.00 66 1015.1
20260507162017 59 281 0.9 6.1 0.00 0.00 0.00 66 1015.1
20260507160519 59 92 0.9 4.3 0.00 0.00 0.00 67 1014.8
20260507155016 59 292 1.7 7.0 0.00 0.00 0.00 68 1014.8
20260507152016 61 234 1.7 8.7 0.00 0.01 0.00 65 1014.8
20260507150512 62 90 2.6 7.0 0.00 0.09 0.00 61 1014.6
20260507145013 62 254 1.7 6.1 0.00 0.24 0.00 64 1014.6
20260507143513 60 300 2.6 10.4 0.00 0.33 0.00 66 1014.7
20260507140515 61 161 1.7 6.1 0.00 0.33 0.00 64 1014.7
20260507135012 62 74 2.6 7.0 0.00 0.33 0.00 63 1014.8
20260507133515 62 38 2.6 6.1 0.00 0.33 0.00 62 1014.8
20260507130514 63 315 2.6 7.8 0.00 0.33 0.00 63 1014.8
20260507125013 61 235 2.6 10.4 0.00 0.33 0.00 66 1014.8
20260507122012 62 285 3.5 12.2 0.00 0.33 0.00 61 1014.7
20260507120519 60 290 3.5 8.7 0.00 0.33 0.00 64 1014.7
20260507115012 60 218 2.6 9.6 0.00 0.33 0.00 65 1014.8
20260507110503 60 292 3.5 12.2 0.00 0.33 0.00 67 1015.1
20260507105006 58 232 4.3 11.3 0.00 0.33 0.00 68 1015.0
20260507103505 57 182 3.5 11.3 0.00 0.33 0.00 68 1015.0
20260507102006 57 270 3.5 8.7 0.00 0.33 0.00 72 1015.0
20260507100509 58 306 3.5 11.3 0.00 0.33 0.00 68 1015.1
20260507095004 55 198 2.6 10.4 0.00 0.33 0.00 73 1015.0
20260507093508 54 207 2.6 11.3 0.00 0.33 0.00 76 1014.8
20260507092003 54 270 3.5 11.3 0.00 0.33 0.00 75 1014.8
20260507090507 55 322 3.5 9.6 0.00 0.33 0.00 72 1014.5
20260507085004 56 254 2.6 10.4 0.00 0.33 0.00 72 1014.4
20260507082006 56 229 3.5 9.6 0.00 0.33 0.00 70 1014.2
20260507080510 56 263 3.5 11.3 0.00 0.33 0.00 72 1013.9
20260507075002 55 217 3.5 10.4 0.00 0.33 0.00 73 1013.9
20260507073503 54 246 3.5 9.6 0.00 0.33 0.00 75 1014.0
20260507072445 55 267 3.5 11.3 0.00 0.33 0.00 73 1014.0
20260507071811 54 211 3.5 9.6 0.00 0.33 0.00 75 1013.7
20260507065001 55 234 3.5 11.3 0.00 0.33 0.00 75 1013.6
20260507060501 51 205 2.6 7.8 0.00 0.33 0.00 82 1013.3
20260507055002 50 246 2.6 7.0 0.00 0.33 0.00 85 1013.1
20260507053501 49 254 1.7 7.8 0.00 0.33 0.00 88 1013.0
20260507052006 49 248 1.7 5.2 0.00 0.33 0.00 89 1013.0
20260507050505 48 192 0.9 4.3 0.00 0.33 0.00 89 1012.9
20260507045001 48 222 0.0 2.6 0.00 0.33 0.00 89 1012.7
20260507043503 48 234 0.9 2.6 0.00 0.33 0.00 89 1012.6
20260507042002 48 217 0.0 2.6 0.00 0.33 0.00 88 1012.3